Location: Unspecified
(41.5000°N, 0.0000°E)
Time: 11:48:04
(UTC+00:00)

Vanguard 2 - Pass Details

Date: 26 June 2019
Orbit: 553 x 2938 km, 32.9° (Epoch: 20 August)

Event Time Altitude Azimuth Distance (km) Brightness Sun altitude
Rises 13:17:59 0° 263° (W) 4,339 11.6 66.0°
Reaches altitude 10° 13:21:49 10° 245° (WSW) 3,762 11.6 65.5°
Maximum altitude 13:28:01 18° 207° (SSW) 3,736 11.7 64.6°
Drops below altitude 10° 13:35:58 10° 171° (S) 4,988 12.0 63.4°
Sets 13:42:28 0° 156° (SSE) 6,390 12.3 62.4°
